Location: Four Corners
(38.2757°N, 122.4608°W)
Time: 22:31:58
(UTC+00:00)

Meteor 1-18 Rocket - Pass Details

Date: 08 December 2019
Orbit: 837 x 909 km, 81.2° (Epoch: 24 January)

Event Time Altitude Azimuth Distance (km) Brightness Sun altitude
Rises 03:06:20 0° 193° (SSW) 3,480 7.7 -26.2°
Reaches altitude 10° 03:08:49 10° 196° (SSW) 2,534 6.9 -26.7°
Maximum altitude 03:14:33 70° 280° (W) 923 4.4 -27.8°
Enters shadow 03:17:02 35° 355° (N) 1,375 5.2 -28.3°
